User: anonymous   Login
Location: Unspecified
(0.0000°N, 0.0000°E)
Time: 08:01:50
(UTC+01:00)
Language:

Cosmos 2263 Rocket - Orbit

View from above orbital plane
View from above orbital plane
View from above satellite
View from above satellite

Ground track
Ground track

The orbit data is extracted from the following two-line orbital elements,

1 22803U 93059B   14355.45794642  .00000032  00000-0  39834-4 0  4474
2 22803 070.9907 004.2339 0018827 323.7265 036.2580 14.16689937 99572
Epoch (UTC): 21 December 2014 10:59:26
Eccentricity: 0.0018827
inclination: 70.9907°
perigee height: 823 km
apogee height: 850 km
right ascension of ascending node: 4.2339°
argument of perigee: 323.7265°
revolutions per day: 14.16689937
mean anomaly at epoch: 36.2580°
orbit number at epoch: 9957

The dashed part of the orbit path shows where the satellite is in the earth's shadow,  

DLR